Fort Payne, AL

9:32 AM CST on January 16, 2017 (GMT -0600)
Fort Payne

Weather History for K4A9 - January, 2013

Change the Weather History Date:

Monday, January 14, 2013

  Actual Average (KRMG) Record (KRMG)
Temperature  
Mean Temperature 40 °F -  
Max Temperature 44 °F 51 °F 77 °F (2017)
Min Temperature 37 °F 30 °F 12 °F (2011)
Degree Days  
Heating Degree Days 24    
Moisture  
Dew Point 39 °F    
Average Humidity 90    
Maximum Humidity 93    
Minimum Humidity 87    
Precipitation  
Precipitation 2.25 in - - ()
Sea Level Pressure  
Sea Level Pressure 30.14 in    
Wind  
Wind Speed 4 mph (NNE)    
Max Wind Speed 9 mph    
Max Gust Speed 16 mph    
Visibility 6 miles    
Events Rain    
Averages and records for this station are not official NWS values.
T = Trace of Precipitation, MM = Missing Value Source: NWS Daily Summary

Daily Weather History Graph

Daily Weather History Graph

Search for Another Location

Airport or City:

Trip Planner

Search our weather history database for the weather conditions in past years. The results will help you decide how hot, cold, wet, or windy it might be!

Date:

Astronomy

Jan. 14, 2013 Rise Set
Actual Time 6:49 AM CST 4:55 PM CST
Civil Twilight 6:22 AM CST 5:22 PM CST
Nautical Twilight 5:51 AM CST 5:53 PM CST
Astronomical Twilight 5:20 AM CST 6:23 PM CST
Moon 8:32 AM CST (1/14) 8:28 PM CST (1/14)
Length of Visible Light 11h 00m
Length of Day
10h 05m
Waxing Crescent, 11% of the Moon is Illuminated
Jan 14
Waxing Crescent
Jan 18
First Quarter
Jan 26
Full
Feb 3
Last Quarter
Feb 10
New

Hourly Weather History & Observations

Time (CST) Temp. Windchill Dew Point Humidity Pressure Visibility Wind Dir Wind Speed Gust Speed Precip Events Conditions
12:15 AM 44.6 °F 42.2 °F 42.8 °F 93% 30.09 in 7.0 mi North 4.6 mph - 0.03 in Rain Heavy Rain
12:35 AM 44.6 °F 41.4 °F 42.8 °F 93% 30.09 in 10.0 mi NNW 5.8 mph - 0.03 in   Light Drizzle
1:15 AM 44.6 °F - 41.0 °F 87% 30.10 in 5.0 mi Calm Calm - 0.01 in   Heavy Drizzle
1:35 AM 44.6 °F - 41.0 °F 87% 30.10 in 4.0 mi Calm Calm - 0.03 in   Heavy Drizzle
1:55 AM 44.6 °F 43.1 °F 41.0 °F 87% 30.11 in 4.0 mi North 3.5 mph - 0.05 in Rain Rain
2:15 AM 44.6 °F 40.7 °F 41.0 °F 87% 30.11 in 7.0 mi North 6.9 mph - 0.01 in   Drizzle
2:55 AM 44.6 °F 41.4 °F 41.0 °F 87% 30.10 in 5.0 mi NNE 5.8 mph - 0.03 in   Light Drizzle
3:15 AM 44.6 °F 41.4 °F 41.0 °F 87% 30.10 in 5.0 mi NNE 5.8 mph - N/A   Overcast
3:35 AM 44.6 °F 42.2 °F 41.0 °F 87% 30.10 in 7.0 mi North 4.6 mph - N/A   Overcast
3:55 AM 44.6 °F 42.2 °F 41.0 °F 87% 30.11 in 10.0 mi NNE 4.6 mph - N/A Rain Light Rain
4:15 AM 44.6 °F 43.1 °F 41.0 °F 87% 30.10 in 5.0 mi NE 3.5 mph - N/A Rain Light Rain
4:35 AM 44.6 °F 43.1 °F 41.0 °F 87% 30.10 in 4.0 mi NNE 3.5 mph - N/A   Light Drizzle
4:55 AM 42.8 °F 40.1 °F 41.0 °F 93% 30.10 in 5.0 mi NNE 4.6 mph - N/A   Light Drizzle
5:15 AM 42.8 °F 38.6 °F 41.0 °F 93% 30.10 in 10.0 mi NNE 6.9 mph - N/A Rain Light Rain
5:35 AM 44.6 °F - 41.0 °F 87% 30.12 in 7.0 mi Calm Calm - 0.01 in Rain Rain
5:55 AM 42.8 °F 41.1 °F 41.0 °F 93% 30.13 in 3.0 mi NNE 3.5 mph - 0.07 in Rain Rain
6:15 AM 42.8 °F - 41.0 °F 93% 30.13 in 7.0 mi Calm Calm - 0.01 in   Drizzle
6:35 AM 42.8 °F 40.1 °F 41.0 °F 93% 30.14 in 7.0 mi NNE 4.6 mph - 0.03 in Rain Rain
6:55 AM 42.8 °F 41.1 °F 41.0 °F 93% 30.15 in 10.0 mi North 3.5 mph - 0.03 in   Drizzle
7:15 AM 42.8 °F 39.3 °F 39.2 °F 87% 30.15 in 5.0 mi NNE 5.8 mph - 0.01 in Rain Light Rain
7:35 AM 42.8 °F 39.3 °F 39.2 °F 87% 30.17 in 7.0 mi North 5.8 mph - 0.01 in   Drizzle
7:55 AM 42.8 °F 38.6 °F 39.2 °F 87% 30.18 in 2.5 mi North 6.9 mph - 0.04 in Rain Rain
8:15 AM 42.8 °F 41.1 °F 39.2 °F 87% 30.18 in 3.0 mi North 3.5 mph - 0.03 in Rain Heavy Rain
8:35 AM 42.8 °F 41.1 °F 39.2 °F 87% 30.18 in 3.0 mi NNE 3.5 mph - 0.06 in Rain Rain
8:55 AM 42.8 °F 38.0 °F 39.2 °F 87% 30.16 in 4.0 mi NE 8.1 mph - 0.09 in Rain Rain
9:15 AM 42.8 °F 40.1 °F 41.0 °F 93% 30.18 in 5.0 mi NNE 4.6 mph - 0.02 in Rain Rain
9:35 AM 42.8 °F 40.1 °F 41.0 °F 93% 30.17 in 5.0 mi NNE 4.6 mph - 0.04 in Rain Light Rain
9:55 AM 42.8 °F 39.3 °F 39.2 °F 87% 30.18 in 3.0 mi NE 5.8 mph - 0.10 in Rain Rain
10:15 AM 42.8 °F - 39.2 °F 87% 30.18 in 3.0 mi Calm Calm - 0.04 in Rain Rain
10:35 AM 42.8 °F 40.1 °F 41.0 °F 93% 30.15 in 2.0 mi ENE 4.6 mph - 0.11 in   Overcast
10:55 AM 42.8 °F 40.1 °F 41.0 °F 93% 30.13 in 5.0 mi NE 4.6 mph - 0.14 in Rain Rain
11:35 AM 42.8 °F - 41.0 °F 93% 30.13 in 1.8 mi Calm Calm - 0.12 in Rain Light Rain
11:55 AM 44.6 °F 42.2 °F 41.0 °F 87% 30.11 in 1.2 mi NE 4.6 mph - 0.21 in   Overcast
12:15 PM 42.8 °F 41.1 °F 41.0 °F 93% 30.10 in 1.8 mi East 3.5 mph - 0.08 in Rain Rain
12:35 PM 44.6 °F 42.2 °F 41.0 °F 87% 30.09 in 5.0 mi ENE 4.6 mph - 0.14 in Rain Rain
12:55 PM 44.6 °F - 41.0 °F 87% 30.10 in 1.5 mi Calm Calm - 0.21 in Rain Rain
1:15 PM 44.6 °F - 41.0 °F 87% 30.09 in 1.8 mi Calm Calm - 0.07 in Rain Light Rain
1:35 PM 44.6 °F - 42.8 °F 93% 30.10 in 3.0 mi Calm Calm - 0.12 in Rain Rain
1:55 PM 44.6 °F 43.1 °F 42.8 °F 93% 30.10 in 4.0 mi NNE 3.5 mph - 0.17 in Rain Heavy Rain
2:15 PM 44.6 °F 43.1 °F 42.8 °F 93% 30.10 in 2.5 mi NNE 3.5 mph - 0.06 in Rain Heavy Rain
2:35 PM 44.6 °F 43.1 °F 42.8 °F 93% 30.12 in 0.8 mi North 3.5 mph - 0.22 in   Unknown
2:55 PM 44.6 °F 41.4 °F 42.8 °F 93% 30.13 in 1.0 mi NNW 5.8 mph - 0.35 in Rain Light Rain
3:15 PM 42.8 °F 39.3 °F 41.0 °F 93% 30.15 in 1.5 mi North 5.8 mph - 0.10 in Rain Light Rain
3:35 PM 42.8 °F 39.3 °F 39.2 °F 87% 30.18 in 5.0 mi NNW 5.8 mph - 0.15 in Rain Heavy Rain
3:55 PM 41.0 °F 35.8 °F 37.4 °F 87% 30.16 in 5.0 mi North 8.1 mph - 0.18 in Rain Rain
4:15 PM 41.0 °F 36.4 °F 37.4 °F 87% 30.19 in 4.0 mi NW 6.9 mph - 0.01 in   Heavy Drizzle
4:35 PM 39.2 °F 33.0 °F 35.6 °F 87% 30.20 in 5.0 mi NNW 9.2 mph - 0.06 in Rain Rain
4:55 PM 39.2 °F - 35.6 °F 87% 30.21 in 1.8 mi Calm Calm - 0.14 in Rain Light Rain
5:15 PM 39.2 °F 33.6 °F 35.6 °F 87% 30.23 in 2.0 mi North 8.1 mph 16.1 mph 0.08 in   Overcast
5:35 PM 39.2 °F 34.2 °F 35.6 °F 87% 30.22 in 3.0 mi NE 6.9 mph - 0.14 in Rain Rain
5:55 PM 37.4 °F 32.1 °F 35.6 °F 93% 30.21 in 7.0 mi NNE 6.9 mph - 0.17 in Rain Rain
6:15 PM 37.4 °F 32.1 °F 35.6 °F 93% 30.21 in 10.0 mi NE 6.9 mph - 0.02 in Rain Rain
6:35 PM 37.4 °F 33.8 °F 35.6 °F 93% 30.21 in 10.0 mi NNE 4.6 mph - 0.02 in   Overcast
6:55 PM 37.4 °F - 35.6 °F 93% 30.22 in 10.0 mi Calm Calm - 0.02 in   Drizzle
7:15 PM 37.4 °F 33.8 °F 35.6 °F 93% 30.20 in 5.0 mi ENE 4.6 mph - 0.01 in   Drizzle
7:35 PM 37.4 °F 32.8 °F 35.6 °F 93% 30.20 in 10.0 mi NE 5.8 mph - 0.01 in Rain Light Rain
7:55 PM 37.4 °F 33.8 °F 35.6 °F 93% 30.18 in 4.0 mi NE 4.6 mph - 0.05 in Rain Rain
8:15 PM 37.4 °F 34.9 °F 35.6 °F 93% 30.20 in 5.0 mi North 3.5 mph - 0.04 in Rain Rain
8:35 PM 39.2 °F - 35.6 °F 87% 30.18 in 4.0 mi Calm Calm - 0.09 in Rain Rain
8:55 PM 39.2 °F 35.0 °F 35.6 °F 87% 30.16 in 10.0 mi East 5.8 mph - 0.12 in Rain Light Rain
9:15 PM 39.2 °F 35.9 °F 35.6 °F 87% 30.16 in 10.0 mi ENE 4.6 mph - 0.01 in Rain Light Rain
9:35 PM 39.2 °F 35.0 °F 35.6 °F 87% 30.15 in 10.0 mi NE 5.8 mph - 0.03 in Rain Rain
9:55 PM 39.2 °F 37.0 °F 35.6 °F 87% 30.14 in 10.0 mi ENE 3.5 mph - 0.05 in Rain Light Rain
10:15 PM 39.2 °F 34.2 °F 37.4 °F 93% 30.13 in 10.0 mi NE 6.9 mph - 0.01 in   Drizzle
10:35 PM 39.2 °F 35.9 °F 37.4 °F 93% 30.12 in 10.0 mi NE 4.6 mph - 0.02 in Rain Light Rain
10:55 PM 41.0 °F - 37.4 °F 87% 30.13 in 10.0 mi Calm Calm - 0.02 in Rain Rain
11:15 PM 41.0 °F - 37.4 °F 87% 30.13 in 10.0 mi Calm Calm - 0.01 in Rain Rain
11:35 PM 41.0 °F - 37.4 °F 87% 30.10 in 10.0 mi Calm Calm - 0.01 in Rain Rain
11:55 PM 41.0 °F - 37.4 °F 87% 30.10 in 10.0 mi Calm Calm - 0.01 in   Light Drizzle